TimeEST,TemperatureF,Dew PointF,Humidity,Sea Level PressureIn,VisibilityMPH,Wind Direction,Wind SpeedMPH,Gust SpeedMPH,PrecipitationIn,Events,Conditions,WindDirDegrees,DateUTC
12:54 AM,28.0,19.9,72,29.84,10.0,WNW,4.6,-,N/A,,Overcast,300,2013-03-02 05:54:00
1:54 AM,28.0,19.9,72,29.83,10.0,NW,5.8,-,N/A,,Overcast,320,2013-03-02 06:54:00
2:54 AM,28.0,21.0,75,29.82,8.0,NNW,9.2,-,N/A,,Overcast,330,2013-03-02 07:54:00
3:54 AM,27.0,21.0,78,29.82,8.0,NW,8.1,-,N/A,,Overcast,320,2013-03-02 08:54:00
4:54 AM,27.0,21.0,78,29.83,9.0,NW,9.2,19.6,N/A,,Overcast,310,2013-03-02 09:54:00
5:54 AM,27.0,21.0,78,29.83,8.0,NW,6.9,-,N/A,,Overcast,320,2013-03-02 10:54:00
6:54 AM,27.0,21.0,78,29.83,9.0,Variable,5.8,-,N/A,,Overcast,0,2013-03-02 11:54:00
7:54 AM,27.0,21.0,78,29.83,3.0,West,5.8,-,0.00,Snow,Light Snow,260,2013-03-02 12:54:00
8:54 AM,28.0,21.0,75,29.83,6.0,NNE,15.0,23.0,0.00,Snow,Light Snow,20,2013-03-02 13:54:00
9:54 AM,28.0,19.9,72,29.83,9.0,NNW,13.8,20.7,0.00,,Overcast,330,2013-03-02 14:54:00
10:54 AM,28.0,19.0,69,29.82,9.0,NW,5.8,18.4,0.00,,Overcast,310,2013-03-02 15:54:00
11:54 AM,28.0,19.0,69,29.82,9.0,NW,9.2,-,N/A,,Overcast,320,2013-03-02 16:54:00
12:54 PM,28.9,19.0,67,29.79,10.0,NNW,16.1,23.0,N/A,,Overcast,330,2013-03-02 17:54:00
1:54 PM,28.9,19.9,69,29.79,6.0,NW,11.5,17.3,0.00,Snow,Light Snow,310,2013-03-02 18:54:00
2:54 PM,30.0,19.9,66,29.78,10.0,NW,11.5,19.6,0.00,,Overcast,310,2013-03-02 19:54:00
3:54 PM,30.0,21.0,69,29.77,9.0,NW,10.4,-,0.00,,Overcast,310,2013-03-02 20:54:00
4:54 PM,28.9,19.0,67,29.78,10.0,NW,11.5,19.6,N/A,,Overcast,310,2013-03-02 21:54:00
5:32 PM,28.4,19.4,69,29.76,10.0,NNW,16.1,-,N/A,,Overcast,330,2013-03-02 22:32:00
5:54 PM,28.0,19.0,69,29.80,10.0,NNW,13.8,20.7,N/A,,Overcast,330,2013-03-02 22:54:00
6:18 PM,28.4,19.4,69,29.77,9.0,NNW,12.7,21.9,N/A,,Overcast,330,2013-03-02 23:18:00
6:54 PM,27.0,19.0,72,29.81,7.0,NNW,12.7,19.6,0.00,Snow,Light Snow,330,2013-03-02 23:54:00
7:46 PM,26.6,19.4,74,29.79,8.0,NW,8.1,-,0.00,,Overcast,320,2013-03-03 00:46:00
7:54 PM,26.1,19.0,75,29.81,6.0,NW,8.1,-,0.00,Snow,Light Snow,320,2013-03-03 00:54:00
8:19 PM,26.6,19.4,74,29.79,6.0,NNW,9.2,-,0.00,Snow,Light Snow,330,2013-03-03 01:19:00
8:54 PM,26.1,19.0,75,29.82,8.0,NW,8.1,-,0.00,,Overcast,320,2013-03-03 01:54:00
9:54 PM,26.1,18.0,71,29.81,7.0,NNW,10.4,21.9,0.00,,Overcast,340,2013-03-03 02:54:00
10:54 PM,25.0,16.0,69,29.81,10.0,NNW,10.4,21.9,0.00,,Overcast,340,2013-03-03 03:54:00
11:54 PM,25.0,17.1,72,29.81,10.0,NNW,9.2,18.4,N/A,,Overcast,330,2013-03-03 04:54:00